FALCON 9 DEB (47681 NORAD) Tracking and Keplerian Element Data

This shows tracking and keplerian element data for the satellite.

Feedback or suggestion? Click here.




ElementValue
Catalog47681
NameFALCON 9 DEB
Epoch Orbit462
Epoch Day73.89185488
Epoch Year2021
RAAN322.9328
Inclination53.0428
Eccentricity0.0009255
Argument of Perigee278.0925
Mean Anonmoly81.9073
Mean Motion16.43416567
Decay Rate0.08775122
L11 47681U 21012BP 21073.89185488 .08775122 12478-4 32849-3 0 9993
L22 47681 53.0428 322.9328 0009255 278.0925 81.9073 16.43416567 4626



Live tracking and technical data element details for FALCON 9 DEB (NORAD 47681). FALCON 9 DEB can be tracked NOW for your location showing map with azimuth and elevation plus other details from your city location.







IsCatalogInMostPopularTable: catalog: 47681, numindb: 134
Update: records affected: 1



GetName: 47681 FALCON 9 DEB

Hit Count: updated at: Sun, 28 May 2023 06:22:01 GMT